Desert Rock Airport
KDRA : now visible

Airfield :











YOU CAN JOIN US ON...

 
LOGIN :

Register | Disclaimer

   EN    FR    IT 

 









Legend :    VFR   Marginal VFR   IFR   Intensive IFR   Very Intensive IFR
Visi :
Ceiling :
>= 8 km
>= 3000ft
5 to 8 km
1000 to 3000 ft
1500m to 5 km
500 to 1000 ft
800 to 1500m
200 to 500 ft
< 800m
< 200 ft
Symbols :   Thunderstorms  Fog  Heavy snow  Heavy precipitations  Wind > 20 kt






- Airport Elevation : 3314 ft


KDRA - Desert Rock

CURRENT METAR :
  • 231053Z AUTO 24015G24KT 10SM CLR 17/04 A2974 RMK AO2 SLP031 T01720044

EXPIRED METARs :
  • 230953Z AUTO 22013G21KT 10SM CLR 18/04 A2976 RMK AO2 PK WND 21028/0909 SLP037 T01830039
  • 230853Z AUTO 19014G23KT 10SM CLR 19/05 A2977 RMK AO2 SLP039 T01890050 55011

Expired Forecast.



MET'MAP, your aeronautical weather chart ! - Copyright ORBIFLY December 2007 - Disclaimer

ORBIFLY MET'MAP TEAM :

Programming & Development : Alexandra Zaïnal
Concept & original design : Baudouin d'Aumeries
Assistance for programming : Marc-Olivier Méhu
Technical & hardware support : Manuel Goepfert

Contact : metmap@orbifly.com




SOURCES & CREDITS :

   NOAA       Earth
Advisory